• Join FlightAware (Why Join?)
  • Login
  • US Flag 
10:45PM EDT


 

Airport Tracker/Info


-or-


 

Live Flight TrackerFlight Track Log ✈ RPA3275 ✈ 16-Jul-2013 ✈ KALB - KPHL

Flight Track Log - Related Links

Times and Time Zones

All times are in EDT time to prevent confusion due to time zone crossing. See the RPA3275 flight status page for this flight to view local times or setup timezone preferences in your user account.

Time Position Orientation Groundspeed Altitude Reporting Facility
EDT Latitude Longitude Course Direction KTS MPH feet Rate Location/Type
06:59AM 42.7653 -73.8061 223° Southwest 142 163 1,400  Level Boston Center
07:00AM 42.7897 -73.8492 308° West 215 247 3,100 2,160 Climbing Boston Center
07:01AM 42.7803 -73.9450 262° West 288 331 5,900 3,060 Climbing Boston Center
07:02AM 42.7333 -74.2065 270° West  Level FlightAware Approximate
07:03AM 42.7157 -74.3344 220° Southwest  Level FlightAware Approximate
07:03AM 42.7678 -74.0861 263° West 297 342 10,200  Level Boston Center
07:04AM 42.6391 -74.4207 220° Southwest  Level FlightAware Approximate
07:04AM 42.7581 -74.1878 263° West 297 342 12,500  Level Boston Center
07:05AM 42.5633 -74.5084 223° Southwest  Level FlightAware Approximate
07:05AM 42.7350 -74.3200 257° West 317 365 15,300  Level Boston Center
07:06AM 42.6692 -74.3969 221° Southwest 317 365 16,000 300 Climbing Boston Center
07:07AM 42.5861 -74.4903 220° Southwest 337 388 16,000  Level Boston Center
07:08AM 42.5117 -74.5750 220° Southwest 358 412 16,000  Level Boston Center
07:09AM 42.4369 -74.6653 222° Southwest 363 418 16,000  Level Boston Center
07:10AM 42.3581 -74.7497 218° Southwest 358 412 16,000  Level Boston Center
07:12AM 42.2219 -74.9042 220° Southwest 358 412 16,100  Climbing New York Center
07:13AM 42.1506 -74.9806 218° Southwest 358 412 16,100  Level New York Center
07:14AM 42.0583 -75.0586 212° Southwest 364 419 16,100  Level New York Center
07:15AM 41.9744 -75.1283 212° Southwest 364 419 16,100  Level New York Center
07:16AM 41.8886 -75.2008 212° Southwest 364 419 16,100 -60 Level New York Center
07:17AM 41.8114 -75.2597 210° Southwest 364 419 16,000 -60 Descending New York Center
07:18AM 41.7297 -75.3264 211° Southwest 364 419 16,000  Level New York Center
07:19AM 41.6417 -75.3953 210° Southwest 345 397 16,000 -900 Level New York Center
07:20AM 41.5556 -75.4669 212° Southwest 355 409 14,200 -1,800 Descending New York Center
07:21AM 41.4783 -75.5253 210° Southwest 367 422 12,400 -1,140 Descending New York Center
07:22AM 41.3986 -75.5914 212° Southwest 355 409 12,000 -240 Descending New York Center
07:23AM 41.3169 -75.6547 210° Southwest 341 392 12,000  Level New York Center
07:24AM 41.2197 -75.6892 195° South 336 387 12,000  Level New York Center
07:25AM 41.1239 -75.6875 179° South 341 392 12,000  Level New York Center
07:26AM 41.0300 -75.6892 181° South 347 399 12,000  Level New York Center
07:27AM 40.9347 -75.6767 174° South 347 399 12,000  Level New York Center
07:28AM 40.8450 -75.6317 159° South 347 399 12,000  Level New York Center
07:29AM 40.7531 -75.5869 160° South 347 399 12,000  Level New York Center
07:30AM 40.6653 -75.5397 158° South 347 399 12,000  Level New York Center
07:31AM 40.5733 -75.4950 160° South 347 399 12,000 -780 Level New York Center
07:32AM 40.4856 -75.4508 159° South 342 394 10,500 -1,020 Descending New York Center
07:33AM 40.4039 -75.4072 158° South 336 387 10,000 -480 Descending New York Center
07:34AM 40.3347 -75.3589 152° Southeast 319 367 9,600 -1,200 Descending New York Center
07:35AM 40.2561 -75.2967 149° Southeast 304 350 7,600 -1,800 Descending New York Center
07:36AM 40.1831 -75.2428 151° Southeast 304 350 6,100 -840 Descending New York Center
07:37AM 40.1167 -75.1833 146° Southeast 296 341 6,000 -420 Descending Philadelphia TRACON
07:38AM 40.0333 -75.1333 155° Southeast 239 275 5,300 -660 Descending Philadelphia TRACON